Total_Precipitation_Accumulation
0.45 0.43 0.45 0.50 0.52 0.54 0.55 0.54 0.54 0.62 0.65 0.69 0.82 1.03 1.32 1.43 1.53 1.46 1.26 1.19 1.31 1.57 1.81 1.78 1.86 1.94 1.84 1.80 1.81 2.03 1.97 1.70 1.47 1.54 1.38 1.21 1.10 1.28 1.35 1.29 1.34 1.42 1.47
0.35 0.32 0.33 0.37 0.39 0.42 0.48 0.49 0.49 0.57 0.61 0.66 0.83 0.98 1.14 1.16 1.33 1.45 1.42 1.33 1.33 1.48 1.63 1.90 2.03 2.01 2.10 2.22 2.19 2.56 2.70 2.22 1.78 1.81 2.01 1.77 1.59 1.41 1.29 1.30 1.32 1.47 1.67
0.33 0.32 0.31 0.30 0.31 0.33 0.33 0.35 0.39 0.47 0.58 0.71 0.92 1.12 1.31 1.40 1.47 1.40 1.48 1.49 1.41 1.46 1.57 1.72 1.87 1.91 2.03 2.18 2.29 2.62 3.14 2.90 2.28 2.05 2.39 2.15 1.93 1.82 1.49 1.29 1.29 1.41 1.70
0.32 0.37 0.34 0.36 0.33 0.29 0.26 0.28 0.36 0.50 0.68 0.89 1.11 1.34 1.54 1.58 1.48 1.53 1.57 1.45 1.37 1.34 1.42 1.55 1.68 1.82 1.87 2.02 2.12 2.25 2.78 3.17 2.85 2.53 2.20 1.88 1.83 1.98 1.89 1.53 1.41 1.45 1.58
0.31 0.34 0.32 0.35 0.34 0.32 0.32 0.37 0.56 0.80 1.04 1.26 1.51 1.77 1.75 1.63 1.54 1.55 1.54 1.48 1.48 1.44 1.44 1.58 1.65 1.68 1.75 1.87 2.20 2.46 2.74 2.97 2.96 2.89 2.68 2.40 2.13 1.81 2.00 1.99 1.72 1.59 1.55
0.33 0.41 0.46 0.54 0.57 0.60 0.73 0.91 1.17 1.36 1.46 1.57 1.72 1.83 1.77 1.78 1.72 1.55 1.47 1.46 1.51 1.57 1.60 1.65 1.65 1.63 1.67 1.79 2.02 2.32 2.54 2.84 3.03 2.95 2.75 2.62 2.50 2.28 2.19 2.03 1.90 1.88 1.69
0.41 0.54 0.70 0.83 0.94 1.08 1.23 1.37 1.53 1.66 1.61 1.58 1.64 1.68 1.67 1.64 1.62 1.56 1.48 1.42 1.44 1.48 1.51 1.59 1.71 1.78 1.82 1.94 2.12 2.27 2.19 2.39 2.77 2.79 2.64 2.55 2.35 2.32 2.40 2.31 2.01 1.87 1.58
0.59 0.70 0.78 0.90 1.06 1.23 1.30 1.30 1.40 1.50 1.47 1.44 1.42 1.40 1.47 1.47 1.41 1.32 1.30 1.35 1.44 1.44 1.36 1.40 1.50 1.62 1.80 1.86 1.92 1.94 1.92 2.02 2.27 2.36 2.55 2.65 2.41 2.28 2.20 2.15 2.20 1.98 1.68
0.87 1.02 1.12 1.23 1.27 1.33 1.40 1.32 1.30 1.35 1.36 1.31 1.23 1.23 1.27 1.33 1.32 1.24 1.25 1.24 1.25 1.18 1.09 1.09 1.15 1.23 1.30 1.38 1.53 1.63 1.76 1.80 1.92 2.07 2.21 2.37 2.48 2.40 2.18 2.12 2.09 2.07 1.88
1.11 1.39 1.64 1.80 1.63 1.37 1.29 1.28 1.21 1.21 1.30 1.28 1.21 1.15 1.22 1.24 1.22 1.22 1.19 1.20 1.19 1.09 1.01 0.97 0.94 0.92 0.89 0.93 1.13 1.33 1.46 1.55 1.70 1.88 2.02 2.07 2.13 2.30 2.25 2.06 2.03 1.96 1.85
1.25 1.40 1.59 1.77 1.68 1.37 1.15 1.18 1.23 1.21 1.22 1.22 1.21 1.18 1.14 1.05 1.05 1.08 1.07 1.06 1.05 1.09 1.06 0.96 0.90 0.99 0.99 0.95 1.02 1.08 1.15 1.22 1.35 1.49 1.62 1.78 2.03 2.32 2.32 2.25 2.12 2.00 1.87
1.15 1.14 1.20 1.26 1.29 1.15 0.97 0.94 1.10 1.18 1.15 1.13 1.14 1.11 1.01 0.95 0.94 0.92 0.86 0.76 0.72 0.74 0.84 0.93 0.87 0.86 0.90 0.92 0.98 1.00 1.04 1.08 1.18 1.27 1.40 1.58 1.84 2.18 2.38 2.45 2.34 2.17 2.03
1.13 1.10 1.01 0.95 0.98 0.95 0.87 0.84 0.98 1.13 1.19 1.17 1.03 0.92 0.87 0.84 0.84 0.76 0.71 0.68 0.60 0.58 0.63 0.72 0.72 0.81 0.90 0.92 0.95 0.96 0.99 1.02 1.11 1.24 1.30 1.35 1.53 1.73 1.93 2.11 2.24 2.21 2.18
0.83 0.78 0.72 0.67 0.67 0.70 0.74 0.79 0.91 1.00 1.12 1.24 1.14 1.00 0.90 0.83 0.80 0.73 0.70 0.66 0.63 0.65 0.70 0.80 0.83 0.78 0.77 0.82 0.93 0.98 0.93 0.91 0.94 1.02 1.12 1.20 1.25 1.42 1.54 1.65 1.85 2.06 2.29
0.43 0.43 0.42 0.41 0.41 0.41 0.41 0.50 0.65 0.80 1.00 1.23 1.22 1.07 1.00 0.93 0.80 0.73 0.72 0.70 0.74 0.71 0.72 0.81 0.91 0.96 0.90 0.88 0.96 0.93 0.92 0.92 0.90 0.93 0.94 1.00 1.02 1.08 1.26 1.31 1.53 1.86 2.12
0.30 0.30 0.28 0.27 0.23 0.21 0.23 0.24 0.34 0.53 0.71 0.88 0.96 0.93 0.84 0.73 0.70 0.69 0.67 0.63 0.62 0.58 0.57 0.60 0.66 0.75 0.80 1.01 0.97 0.81 0.76 0.82 0.88 0.92 0.91 0.93 0.86 0.84 0.90 1.03 1.16 1.46 1.68
0.24 0.24 0.23 0.23 0.22 0.22 0.21 0.22 0.26 0.34 0.45 0.60 0.69 0.69 0.63 0.56 0.54 0.58 0.56 0.52 0.46 0.47 0.45 0.45 0.45 0.51 0.67 0.77 0.60 0.58 0.62 0.76 0.87 0.94 0.97 0.93 0.86 0.90 0.90 0.92 0.93 1.00 1.18
0.23 0.22 0.23 0.21 0.19 0.19 0.19 0.21 0.23 0.25 0.28 0.35 0.41 0.43 0.42 0.41 0.42 0.43 0.42 0.41 0.40 0.39 0.38 0.44 0.51 0.52 0.55 0.63 0.52 0.49 0.58 0.77 0.90 0.90 0.86 0.93 0.93 0.95 1.01 0.94 1.01 0.97 0.95
0.14 0.13 0.13 0.11 0.10 0.10 0.11 0.12 0.14 0.16 0.17 0.18 0.21 0.22 0.23 0.27 0.32 0.33 0.37 0.45 0.47 0.44 0.44 0.54 0.62 0.56 0.50 0.56 0.56 0.59 0.72 0.84 0.91 0.88 0.88 0.95 1.00 1.12 1.17 1.07 1.13 1.09 1.06
0.07 0.06 0.05 0.05 0.05 0.05 0.07 0.07 0.09 0.11 0.11 0.11 0.12 0.15 0.17 0.20 0.24 0.28 0.31 0.32 0.33 0.39 0.46 0.48 0.45 0.46 0.53 0.62 0.59 0.68 0.84 0.96 1.06 1.02 1.01 1.19 1.15 1.13 1.08 1.05 1.19 1.16 1.02
0.06 0.05 0.04 0.04 0.04 0.05 0.05 0.05 0.06 0.08 0.11 0.14 0.15 0.16 0.18 0.19 0.21 0.18 0.15 0.17 0.22 0.25 0.26 0.28 0.33 0.41 0.55 0.60 0.63 0.81 0.89 0.95 1.10 1.12 1.08 1.02 1.16 1.10 1.02 1.01 1.06 1.20 1.08
0.05 0.05 0.06 0.06 0.05 0.05 0.06 0.06 0.07 0.09 0.11 0.12 0.13 0.15 0.14 0.13 0.14 0.14 0.12 0.12 0.15 0.19 0.22 0.25 0.30 0.35 0.41 0.48 0.54 0.68 0.80 0.88 1.05 1.12 1.02 0.92 1.15 1.10 1.01 0.92 0.94 1.10 1.16
0.06 0.07 0.10 0.13 0.12 0.08 0.07 0.08 0.10 0.11 0.11 0.11 0.13 0.14 0.14 0.14 0.11 0.10 0.11 0.12 0.14 0.16 0.20 0.24 0.31 0.39 0.42 0.43 0.50 0.56 0.65 0.78 0.96 1.01 1.02 1.02 1.05 0.96 0.91 1.00 1.03 1.06 1.09
0.06 0.10 0.14 0.17 0.19 0.15 0.11 0.10 0.10 0.11 0.12 0.11 0.13 0.14 0.15 0.16 0.13 0.12 0.11 0.11 0.12 0.14 0.19 0.26 0.32 0.38 0.42 0.44 0.55 0.65 0.67 0.76 0.83 0.82 0.85 0.89 0.84 0.83 0.87 0.93 1.02 1.08 1.14
0.04 0.08 0.15 0.17 0.16 0.16 0.15 0.13 0.13 0.11 0.11 0.11 0.13 0.13 0.16 0.18 0.15 0.11 0.10 0.11 0.12 0.16 0.22 0.26 0.30 0.32 0.34 0.41 0.54 0.69 0.78 0.90 0.99 0.99 0.87 0.85 0.84 0.81 0.81 0.85 0.90 0.96 0.97
0.04 0.06 0.09 0.11 0.12 0.13 0.14 0.12 0.12 0.12 0.11 0.12 0.13 0.13 0.13 0.13 0.14 0.15 0.13 0.12 0.12 0.14 0.16 0.18 0.22 0.27 0.32 0.33 0.37 0.48 0.64 0.82 1.07 1.30 1.24 1.22 1.13 1.03 0.92 0.85 0.81 0.79 0.81